| time (UTC) | temp F | wind direction | speed MPH | gust MPH | rain 1hr in | rain 24hr in | rain mn in | humidity % | barometer mb |
| 20260904120504 | 64 | 12 | 9.0 | 14.0 | 0.00 | 0.09 | 0.09 | 73 | 1008.4 |
| 20260904120004 | 64 | 13 | 9.0 | 14.0 | 0.00 | 0.09 | 0.09 | 74 | 1008.4 |
| 20260904115504 | 64 | 12 | 9.0 | 14.0 | 0.00 | 0.09 | 0.09 | 74 | 1008.4 |
| 20260904115004 | 64 | 11 | 8.0 | 17.0 | 0.00 | 0.09 | 0.09 | 74 | 1008.5 |
| 20260904114504 | 64 | 11 | 9.0 | 17.0 | 0.00 | 0.09 | 0.09 | 74 | 1008.5 |
| 20260904114025 | 64 | 10 | 10.0 | 17.0 | 0.00 | 0.09 | 0.09 | 74 | 1008.7 |
| 20260904113504 | 64 | 6 | 11.0 | 17.0 | 0.00 | 0.09 | 0.09 | 73 | 1008.7 |
| 20260904113004 | 65 | 3 | 11.0 | 19.0 | 0.00 | 0.09 | 0.09 | 73 | 1008.7 |
| 20260904112504 | 65 | 2 | 10.0 | 19.0 | 0.00 | 0.09 | 0.09 | 73 | 1008.8 |
| 20260904112025 | 65 | 1 | 9.0 | 19.0 | 0.00 | 0.09 | 0.09 | 73 | 1008.9 |
| 20260904111504 | 65 | 3 | 9.0 | 19.0 | 0.00 | 0.09 | 0.09 | 73 | 1008.8 |
| 20260904111004 | 65 | 6 | 9.0 | 17.0 | 0.00 | 0.09 | 0.09 | 72 | 1008.7 |
| 20260904110504 | 65 | 2 | 10.0 | 17.0 | 0.00 | 0.09 | 0.09 | 72 | 1008.8 |
| 20260904110004 | 66 | 2 | 10.0 | 20.0 | 0.00 | 0.09 | 0.09 | 71 | 1008.8 |
| 20260904105525 | 66 | 3 | 11.0 | 20.0 | 0.00 | 0.09 | 0.09 | 71 | 1008.8 |
| 20260904105004 | 66 | 359 | 11.0 | 18.0 | 0.00 | 0.09 | 0.09 | 71 | 1008.7 |
| 20260904104504 | 66 | 2 | 12.0 | 24.0 | 0.00 | 0.09 | 0.09 | 70 | 1008.8 |
| 20260904104025 | 66 | 3 | 13.0 | 24.0 | 0.00 | 0.09 | 0.09 | 70 | 1008.5 |
| 20260904103504 | 66 | 3 | 13.0 | 23.0 | 0.00 | 0.09 | 0.09 | 69 | 1008.6 |
| 20260904103004 | 67 | 7 | 12.0 | 23.0 | 0.00 | 0.09 | 0.09 | 69 | 1008.5 |
| 20260904102504 | 67 | 4 | 12.0 | 23.0 | 0.00 | 0.09 | 0.09 | 69 | 1008.3 |
| 20260904102004 | 67 | 358 | 12.0 | 20.0 | 0.00 | 0.09 | 0.09 | 69 | 1008.6 |
| 20260904101504 | 67 | 357 | 12.0 | 18.0 | 0.00 | 0.09 | 0.09 | 68 | 1008.7 |
| 20260904101004 | 67 | 1 | 11.0 | 20.0 | 0.00 | 0.09 | 0.09 | 68 | 1009.1 |
| 20260904100504 | 67 | 2 | 11.0 | 20.0 | 0.00 | 0.09 | 0.09 | 68 | 1008.6 |
| 20260904100004 | 67 | 4 | 10.0 | 17.0 | 0.00 | 0.09 | 0.09 | 69 | 1008.9 |
| 20260904095504 | 67 | 18 | 11.0 | 18.0 | 0.00 | 0.09 | 0.09 | 70 | 1008.8 |
| 20260904095004 | 67 | 27 | 11.0 | 19.0 | 0.00 | 0.09 | 0.09 | 70 | 1008.6 |
| 20260904094504 | 67 | 24 | 11.0 | 20.0 | 0.00 | 0.09 | 0.09 | 70 | 1008.6 |
| 20260904094004 | 67 | 18 | 10.0 | 20.0 | 0.00 | 0.09 | 0.09 | 70 | 1008.5 |
| 20260904093504 | 67 | 19 | 10.0 | 17.0 | 0.00 | 0.09 | 0.09 | 70 | 1008.5 |
| 20260904093004 | 67 | 22 | 10.0 | 18.0 | 0.00 | 0.09 | 0.09 | 70 | 1008.3 |
| 20260904092504 | 67 | 21 | 10.0 | 18.0 | 0.00 | 0.09 | 0.09 | 70 | 1008.3 |
| 20260904092004 | 67 | 24 | 9.0 | 18.0 | 0.00 | 0.09 | 0.09 | 71 | 1008.2 |
| 20260904091525 | 66 | 30 | 8.0 | 18.0 | 0.00 | 0.09 | 0.09 | 72 | 1008.3 |
| 20260904091025 | 66 | 38 | 8.0 | 14.0 | 0.00 | 0.09 | 0.09 | 74 | 1008.3 |
| 20260904090504 | 66 | 42 | 7.0 | 17.0 | 0.00 | 0.09 | 0.09 | 75 | 1008.2 |
| 20260904090025 | 66 | 49 | 7.0 | 17.0 | 0.00 | 0.09 | 0.09 | 75 | 1008.2 |
| 20260904085505 | 66 | 55 | 7.0 | 13.0 | 0.00 | 0.09 | 0.09 | 76 | 1008.3 |
| 20260904085004 | 66 | 60 | 8.0 | 15.0 | 0.00 | 0.09 | 0.09 | 75 | 1008.3 |
| 20260904084525 | 67 | 49 | 9.0 | 15.0 | 0.00 | 0.09 | 0.09 | 75 | 1008.2 |
| 20260904084004 | 67 | 35 | 7.0 | 18.0 | 0.00 | 0.09 | 0.09 | 75 | 1008.4 |
| 20260904083504 | 66 | 42 | 5.0 | 18.0 | 0.00 | 0.09 | 0.09 | 76 | 1008.4 |
| 20260904083004 | 66 | 51 | 4.0 | 17.0 | 0.00 | 0.09 | 0.09 | 77 | 1008.2 |
| 20260904082504 | 66 | 56 | 4.0 | 11.0 | 0.00 | 0.09 | 0.09 | 77 | 1008.2 |
| 20260904082004 | 66 | 49 | 6.0 | 10.0 | 0.00 | 0.09 | 0.09 | 77 | 1008.2 |
| 20260904081525 | 66 | 45 | 6.0 | 14.0 | 0.00 | 0.09 | 0.09 | 78 | 1008.2 |
| 20260904081004 | 66 | 43 | 7.0 | 15.0 | 0.00 | 0.09 | 0.09 | 78 | 1008.1 |
| 20260904080525 | 66 | 49 | 6.0 | 15.0 | 0.00 | 0.09 | 0.09 | 78 | 1008.1 |
| 20260904080025 | 66 | 66 | 5.0 | 13.0 | 0.00 | 0.09 | 0.09 | 79 | 1008.1 |
| 20260904075504 | 66 | 66 | 4.0 | 13.0 | 0.00 | 0.09 | 0.09 | 79 | 1008.3 |
| 20260904075004 | 66 | 54 | 4.0 | 10.0 | 0.00 | 0.09 | 0.09 | 78 | 1008.5 |
| 20260904074504 | 66 | 56 | 5.0 | 10.0 | 0.00 | 0.09 | 0.09 | 78 | 1008.4 |
| 20260904074003 | 67 | 64 | 4.0 | 10.0 | 0.00 | 0.09 | 0.09 | 78 | 1008.4 |
| 20260904073504 | 67 | 60 | 4.0 | 9.0 | 0.00 | 0.09 | 0.09 | 77 | 1008.4 |
| 20260904073025 | 67 | 57 | 4.0 | 11.0 | 0.00 | 0.09 | 0.09 | 77 | 1008.5 |
| 20260904072525 | 67 | 61 | 4.0 | 11.0 | 0.00 | 0.09 | 0.09 | 77 | 1008.4 |
| 20260904072025 | 67 | 55 | 3.0 | 11.0 | 0.00 | 0.09 | 0.09 | 77 | 1008.4 |
| 20260904071504 | 67 | 62 | 3.0 | 10.0 | 0.00 | 0.09 | 0.09 | 76 | 1008.5 |
| 20260904071003 | 67 | 66 | 4.0 | 10.0 | 0.00 | 0.09 | 0.09 | 76 | 1008.5 |
| 20260904070504 | 68 | 58 | 5.0 | 10.0 | 0.00 | 0.09 | 0.09 | 76 | 1008.5 |
| 20260904070004 | 68 | 54 | 6.0 | 15.0 | 0.00 | 0.09 | 0.09 | 76 | 1008.7 |
| 20260904065504 | 68 | 48 | 6.0 | 15.0 | 0.00 | 0.09 | 0.09 | 76 | 1008.8 |
| 20260904065003 | 68 | 45 | 6.0 | 11.0 | 0.00 | 0.09 | 0.09 | 76 | 1008.8 |
| 20260904064504 | 68 | 39 | 6.0 | 13.0 | 0.00 | 0.09 | 0.09 | 76 | 1008.8 |
| 20260904064003 | 68 | 38 | 6.0 | 13.0 | 0.00 | 0.09 | 0.09 | 76 | 1008.9 |
| 20260904063504 | 68 | 47 | 6.0 | 13.0 | 0.00 | 0.09 | 0.09 | 75 | 1008.8 |
| 20260904063004 | 68 | 57 | 7.0 | 13.0 | 0.00 | 0.09 | 0.09 | 75 | 1008.8 |
| 20260904062504 | 68 | 72 | 8.0 | 13.0 | 0.00 | 0.09 | 0.09 | 74 | 1008.7 |
| 20260904062003 | 69 | 77 | 8.0 | 14.0 | 0.00 | 0.09 | 0.09 | 73 | 1008.7 |
| 20260904061525 | 69 | 67 | 7.0 | 14.0 | 0.00 | 0.09 | 0.09 | 72 | 1008.7 |
| 20260904061003 | 70 | 59 | 8.0 | 13.0 | 0.00 | 0.09 | 0.09 | 71 | 1008.8 |
| 20260904060503 | 71 | 62 | 8.0 | 15.0 | 0.00 | 0.09 | 0.09 | 70 | 1008.8 |
| 20260904060003 | 71 | 51 | 9.0 | 18.0 | 0.00 | 0.09 | 0.09 | 70 | 1008.8 |
| 20260904055525 | 71 | 51 | 9.0 | 18.0 | 0.00 | 0.09 | 0.09 | 69 | 1009.0 |
| 20260904055004 | 71 | 52 | 10.0 | 15.0 | 0.00 | 0.09 | 0.09 | 69 | 1009.0 |
| 20260904054525 | 71 | 46 | 10.0 | 15.0 | 0.00 | 0.09 | 0.09 | 70 | 1009.1 |
| 20260904054003 | 71 | 52 | 10.0 | 18.0 | 0.00 | 0.09 | 0.09 | 70 | 1009.1 |
| 20260904053504 | 71 | 58 | 9.0 | 18.0 | 0.00 | 0.09 | 0.09 | 70 | 1009.1 |
| 20260904053003 | 70 | 60 | 8.0 | 18.0 | 0.00 | 0.09 | 0.09 | 70 | 1009.2 |
| 20260904052504 | 70 | 64 | 8.0 | 14.0 | 0.00 | 0.09 | 0.09 | 72 | 1009.2 |
| 20260904052003 | 68 | 63 | 9.0 | 17.0 | 0.00 | 0.09 | 0.09 | 74 | 1009.2 |
| 20260904051524 | 67 | 68 | 9.0 | 18.0 | 0.00 | 0.09 | 0.09 | 75 | 1009.5 |
| 20260904051003 | 66 | 75 | 10.0 | 20.0 | 0.00 | 0.09 | 0.09 | 74 | 1009.7 |
| 20260904050504 | 66 | 74 | 9.0 | 20.0 | 0.00 | 0.09 | 0.09 | 75 | 1009.7 |
| 20260904050004 | 66 | 73 | 9.0 | 18.0 | 0.00 | 0.09 | 0.09 | 75 | 1009.8 |
| 20260904045524 | 65 | 74 | 9.0 | 17.0 | 0.00 | 0.09 | 0.09 | 75 | 1009.9 |
| 20260904045003 | 65 | 68 | 9.0 | 18.0 | 0.00 | 0.09 | 0.09 | 75 | 1010.0 |
| 20260904044503 | 65 | 63 | 10.0 | 23.0 | 0.00 | 0.09 | 0.09 | 75 | 1010.0 |
| 20260904044003 | 66 | 66 | 9.0 | 23.0 | 0.00 | 0.09 | 0.09 | 75 | 1010.0 |
| 20260904043503 | 66 | 66 | 10.0 | 23.0 | 0.00 | 0.09 | 0.09 | 74 | 1010.1 |
| 20260904043025 | 66 | 65 | 10.0 | 23.0 | 0.00 | 0.09 | 0.09 | 74 | 1010.1 |
| 20260904042503 | 66 | 67 | 10.0 | 25.0 | 0.00 | 0.09 | 0.09 | 75 | 1010.1 |
| 20260904042003 | 65 | 68 | 8.0 | 24.0 | 0.00 | 0.09 | 0.09 | 75 | 1010.0 |
| 20260904041503 | 65 | 69 | 8.0 | 20.0 | 0.00 | 0.09 | 0.09 | 76 | 1010.1 |
| 20260904041004 | 65 | 74 | 8.0 | 14.0 | 0.00 | 0.09 | 0.09 | 77 | 1010.3 |
| 20260904040504 | 64 | 77 | 7.0 | 15.0 | 0.00 | 0.09 | 0.09 | 77 | 1010.3 |
| 20260904040004 | 64 | 76 | 6.0 | 15.0 | 0.00 | 0.09 | 0.09 | 77 | 1010.7 |
| 20260904035503 | 64 | 70 | 5.0 | 14.0 | 0.00 | 0.09 | 0.09 | 76 | 1010.9 |
| 20260904035003 | 64 | 68 | 6.0 | 13.0 | 0.00 | 0.09 | 0.09 | 76 | 1011.0 |
| 20260904034503 | 64 | 69 | 6.0 | 13.0 | 0.00 | 0.09 | 0.09 | 75 | 1011.1 |
| 20260904034024 | 64 | 70 | 6.0 | 13.0 | 0.00 | 0.09 | 0.09 | 74 | 1011.1 |
| 20260904033504 | 65 | 60 | 7.0 | 14.0 | 0.00 | 0.09 | 0.09 | 74 | 1011.2 |
| 20260904033024 | 65 | 51 | 8.0 | 14.0 | 0.00 | 0.09 | 0.09 | 74 | 1011.4 |
| 20260904032525 | 65 | 56 | 8.0 | 14.0 | 0.00 | 0.09 | 0.09 | 74 | 1011.5 |
| 20260904032004 | 66 | 63 | 8.0 | 17.0 | 0.00 | 0.09 | 0.09 | 73 | 1011.6 |
| 20260904031503 | 66 | 62 | 8.0 | 18.0 | 0.00 | 0.09 | 0.09 | 73 | 1011.7 |
| 20260904031003 | 66 | 66 | 8.0 | 18.0 | 0.00 | 0.09 | 0.09 | 74 | 1011.8 |
| 20260904030503 | 66 | 65 | 8.0 | 14.0 | 0.00 | 0.09 | 0.09 | 75 | 1012.0 |
| 20260904030004 | 66 | 60 | 9.0 | 14.0 | 0.01 | 0.09 | 0.09 | 78 | 1012.2 |
| 20260904025503 | 65 | 75 | 10.0 | 20.0 | 0.03 | 0.09 | 0.09 | 82 | 1012.1 |
| 20260904025004 | 63 | 86 | 9.0 | 20.0 | 0.05 | 0.09 | 0.09 | 84 | 1012.2 |
| 20260904024503 | 62 | 93 | 7.0 | 15.0 | 0.07 | 0.09 | 0.09 | 86 | 1012.6 |
| 20260904024003 | 60 | 101 | 6.0 | 15.0 | 0.08 | 0.09 | 0.09 | 86 | 1012.8 |
| 20260904023504 | 60 | 106 | 6.0 | 13.0 | 0.08 | 0.09 | 0.09 | 86 | 1013.1 |
| 20260904023003 | 59 | 108 | 7.0 | 11.0 | 0.08 | 0.09 | 0.09 | 85 | 1013.5 |
| 20260904022503 | 59 | 109 | 6.0 | 13.0 | 0.08 | 0.09 | 0.09 | 85 | 1013.6 |
| 20260904022025 | 59 | 99 | 5.0 | 13.0 | 0.08 | 0.09 | 0.09 | 85 | 1013.6 |
| 20260904021503 | 59 | 71 | 6.0 | 17.0 | 0.08 | 0.09 | 0.09 | 84 | 1013.9 |
| 20260904021024 | 59 | 67 | 7.0 | 17.0 | 0.08 | 0.09 | 0.09 | 84 | 1013.8 |
| 20260904020524 | 59 | 56 | 7.0 | 17.0 | 0.09 | 0.10 | 0.09 | 84 | 1013.5 |
| 20260904020004 | 59 | 43 | 5.0 | 15.0 | 0.08 | 0.09 | 0.09 | 82 | 1014.0 |
| 20260904015503 | 59 | 37 | 3.0 | 14.0 | 0.06 | 0.08 | 0.06 | 81 | 1014.7 |
| 20260904015003 | 60 | 47 | 3.0 | 10.0 | 0.04 | 0.06 | 0.05 | 80 | 1015.0 |
| 20260904014503 | 60 | 57 | 4.0 | 11.0 | 0.02 | 0.04 | 0.02 | 78 | 1014.9 |
| 20260904014004 | 60 | 54 | 7.0 | 11.0 | 0.01 | 0.03 | 0.02 | 77 | 1014.7 |
| 20260904013504 | 60 | 50 | 9.0 | 18.0 | 0.01 | 0.03 | 0.02 | 77 | 1014.7 |
| 20260904013003 | 60 | 45 | 10.0 | 19.0 | 0.01 | 0.03 | 0.02 | 77 | 1014.5 |
| 20260904012503 | 60 | 42 | 10.0 | 19.0 | 0.01 | 0.03 | 0.02 | 76 | 1014.4 |
| 20260904012003 | 60 | 46 | 9.0 | 19.0 | 0.01 | 0.03 | 0.02 | 78 | 1014.6 |
| 20260904011503 | 60 | 49 | 8.0 | 18.0 | 0.01 | 0.03 | 0.02 | 79 | 1014.6 |
| 20260904011003 | 60 | 47 | 8.0 | 18.0 | 0.01 | 0.03 | 0.02 | 80 | 1014.7 |
| 20260904010524 | 60 | 43 | 8.0 | 15.0 | 0.00 | 0.02 | 0.01 | 80 | 1015.0 |
| 20260904010003 | 59 | 39 | 10.0 | 15.0 | 0.00 | 0.02 | 0.01 | 80 | 1015.3 |
| 20260904005504 | 60 | 37 | 12.0 | 17.0 | 0.00 | 0.02 | 0.01 | 79 | 1015.4 |
| 20260904005003 | 60 | 31 | 14.0 | 28.0 | 0.00 | 0.02 | 0.01 | 79 | 1015.7 |
| 20260904004503 | 60 | 27 | 14.0 | 28.0 | 0.00 | 0.02 | 0.01 | 77 | 1015.7 |
| 20260904004003 | 60 | 21 | 13.0 | 29.0 | 0.00 | 0.02 | 0.01 | 76 | 1015.9 |
| 20260904003504 | 61 | 19 | 12.0 | 29.0 | 0.00 | 0.02 | 0.01 | 75 | 1016.1 |
| 20260904003004 | 61 | 22 | 13.0 | 24.0 | 0.00 | 0.02 | 0.01 | 74 | 1016.1 |
| 20260904002503 | 61 | 26 | 13.0 | 25.0 | 0.00 | 0.02 | 0.01 | 73 | 1015.9 |
| 20260904002003 | 61 | 28 | 12.0 | 25.0 | 0.00 | 0.02 | 0.01 | 74 | 1016.0 |
| 20260904001503 | 61 | 25 | 10.0 | 25.0 | 0.00 | 0.02 | 0.01 | 75 | 1016.1 |
| 20260904001024 | 61 | 28 | 9.0 | 23.0 | 0.00 | 0.02 | 0.01 | 76 | 1016.1 |
| 20260904000504 | 61 | 42 | 8.0 | 20.0 | 0.00 | 0.02 | 0.01 | 76 | 1015.9 |
| 20260904000005 | 61 | 49 | 9.0 | 20.0 | 0.00 | 0.02 | 0.01 | 77 | 1015.8 |
| 20260903235504 | 60 | 58 | 10.0 | 20.0 | 0.00 | 0.02 | 0.01 | 77 | 1015.5 |
| 20260903235004 | 60 | 63 | 9.0 | 20.0 | 0.00 | 0.02 | 0.01 | 77 | 1015.5 |
| 20260903234504 | 60 | 63 | 9.0 | 19.0 | 0.00 | 0.02 | 0.01 | 77 | 1015.4 |
| 20260903234005 | 60 | 65 | 9.0 | 20.0 | 0.00 | 0.02 | 0.01 | 77 | 1015.2 |
| 20260903233504 | 60 | 67 | 8.0 | 20.0 | 0.00 | 0.02 | 0.01 | 77 | 1015.5 |
| 20260903233004 | 60 | 66 | 7.0 | 18.0 | 0.00 | 0.02 | 0.01 | 77 | 1015.5 |
| 20260903232504 | 60 | 65 | 7.0 | 18.0 | 0.00 | 0.02 | 0.01 | 77 | 1015.6 |
| 20260903232004 | 60 | 48 | 9.0 | 15.0 | 0.00 | 0.02 | 0.01 | 77 | 1015.6 |
| 20260903231504 | 60 | 53 | 11.0 | 19.0 | 0.00 | 0.02 | 0.01 | 77 | 1015.5 |
| 20260903231004 | 60 | 71 | 12.0 | 25.0 | 0.00 | 0.02 | 0.01 | 77 | 1015.6 |
| 20260903230504 | 60 | 73 | 12.0 | 25.0 | 0.00 | 0.02 | 0.01 | 77 | 1015.6 |
| 20260903230004 | 60 | 69 | 10.0 | 25.0 | 0.00 | 0.02 | 0.01 | 78 | 1015.6 |
| 20260903225504 | 59 | 64 | 10.0 | 25.0 | 0.00 | 0.02 | 0.01 | 78 | 1015.7 |
| 20260903225025 | 59 | 65 | 11.0 | 23.0 | 0.00 | 0.02 | 0.01 | 79 | 1015.5 |
| 20260903224504 | 58 | 75 | 11.0 | 25.0 | 0.00 | 0.02 | 0.01 | 79 | 1015.7 |
| 20260903224004 | 58 | 77 | 11.0 | 25.0 | 0.00 | 0.02 | 0.01 | 79 | 1015.5 |
| 20260903223525 | 58 | 68 | 11.0 | 24.0 | 0.00 | 0.02 | 0.01 | 79 | 1015.3 |
| 20260903223004 | 58 | 65 | 9.0 | 23.0 | 0.00 | 0.02 | 0.01 | 79 | 1015.5 |
| 20260903222504 | 58 | 62 | 9.0 | 23.0 | 0.00 | 0.02 | 0.01 | 79 | 1015.6 |
| 20260903222004 | 58 | 61 | 9.0 | 23.0 | 0.01 | 0.02 | 0.01 | 80 | 1015.5 |
| 20260903221504 | 58 | 71 | 9.0 | 23.0 | 0.01 | 0.02 | 0.01 | 80 | 1015.6 |
| 20260903221004 | 58 | 68 | 10.0 | 20.0 | 0.01 | 0.02 | 0.01 | 80 | 1015.7 |
| 20260903220504 | 58 | 70 | 10.0 | 24.0 | 0.01 | 0.02 | 0.01 | 81 | 1015.6 |
| 20260903220004 | 57 | 75 | 9.0 | 24.0 | 0.01 | 0.02 | 0.01 | 81 | 1015.4 |
| 20260903215525 | 57 | 77 | 9.0 | 24.0 | 0.01 | 0.02 | 0.01 | 82 | 1015.3 |
| 20260903215004 | 56 | 77 | 9.0 | 18.0 | 0.01 | 0.02 | 0.01 | 82 | 1015.3 |
| 20260903214525 | 56 | 75 | 10.0 | 15.0 | 0.01 | 0.02 | 0.01 | 82 | 1015.4 |
| 20260903214004 | 56 | 76 | 10.0 | 23.0 | 0.01 | 0.02 | 0.01 | 83 | 1015.4 |
| 20260903213504 | 56 | 78 | 10.0 | 23.0 | 0.01 | 0.02 | 0.01 | 83 | 1015.4 |
| 20260903213004 | 56 | 75 | 10.0 | 23.0 | 0.01 | 0.02 | 0.01 | 83 | 1015.2 |
| 20260903212525 | 56 | 73 | 11.0 | 25.0 | 0.01 | 0.02 | 0.01 | 83 | 1015.1 |
| 20260903212004 | 56 | 81 | 11.0 | 25.0 | 0.00 | 0.02 | 0.00 | 82 | 1014.7 |
| 20260903211504 | 57 | 81 | 10.0 | 23.0 | 0.00 | 0.02 | 0.00 | 82 | 1014.9 |
| 20260903211025 | 56 | 79 | 10.0 | 23.0 | 0.00 | 0.02 | 0.00 | 82 | 1015.0 |
| 20260903210504 | 56 | 78 | 10.0 | 23.0 | 0.00 | 0.02 | 0.00 | 82 | 1015.2 |
| 20260903210004 | 56 | 80 | 10.0 | 23.0 | 0.00 | 0.02 | 0.00 | 82 | 1015.2 |
| 20260903205525 | 56 | 79 | 10.0 | 20.0 | 0.00 | 0.02 | 0.00 | 82 | 1015.2 |
| 20260903205004 | 56 | 77 | 9.0 | 19.0 | 0.00 | 0.02 | 0.00 | 82 | 1015.4 |
| 20260903204504 | 56 | 73 | 9.0 | 20.0 | 0.00 | 0.02 | 0.00 | 82 | 1015.3 |
| 20260903204004 | 56 | 70 | 10.0 | 20.0 | 0.00 | 0.02 | 0.00 | 82 | 1015.3 |
| 20260903203504 | 56 | 69 | 10.0 | 18.0 | 0.00 | 0.02 | 0.00 | 82 | 1015.3 |
| 20260903203004 | 56 | 70 | 9.0 | 19.0 | 0.00 | 0.02 | 0.00 | 82 | 1015.5 |
| 20260903202504 | 56 | 68 | 9.0 | 19.0 | 0.00 | 0.02 | 0.00 | 82 | 1015.6 |
| 20260903202004 | 56 | 64 | 8.0 | 18.0 | 0.00 | 0.02 | 0.00 | 83 | 1015.7 |
| 20260903201504 | 56 | 65 | 8.0 | 18.0 | 0.00 | 0.02 | 0.00 | 83 | 1015.8 |
| 20260903201004 | 56 | 63 | 8.0 | 14.0 | 0.00 | 0.02 | 0.00 | 83 | 1015.8 |
| 20260903200504 | 56 | 64 | 9.0 | 17.0 | 0.00 | 0.02 | 0.00 | 84 | 1015.8 |
| 20260903200004 | 56 | 68 | 10.0 | 19.0 | 0.00 | 0.02 | 0.00 | 84 | 1015.9 |
| 20260903195504 | 56 | 59 | 9.0 | 19.0 | 0.00 | 0.02 | 0.00 | 84 | 1015.9 |
| 20260903195004 | 56 | 55 | 9.0 | 20.0 | 0.00 | 0.02 | 0.00 | 84 | 1016.0 |
| 20260903194504 | 55 | 63 | 9.0 | 20.0 | 0.00 | 0.02 | 0.00 | 85 | 1016.0 |
| 20260903194004 | 55 | 62 | 8.0 | 19.0 | 0.00 | 0.02 | 0.00 | 85 | 1016.1 |
| 20260903193503 | 55 | 56 | 7.0 | 19.0 | 0.00 | 0.02 | 0.00 | 85 | 1016.3 |
| 20260903193004 | 55 | 61 | 8.0 | 14.0 | 0.00 | 0.02 | 0.00 | 86 | 1016.4 |
| 20260903192504 | 55 | 66 | 8.0 | 14.0 | 0.00 | 0.02 | 0.00 | 86 | 1016.5 |
| 20260903192004 | 55 | 63 | 7.0 | 14.0 | 0.00 | 0.02 | 0.00 | 86 | 1016.6 |
| 20260903191504 | 55 | 62 | 7.0 | 14.0 | 0.00 | 0.02 | 0.00 | 86 | 1016.6 |
| 20260903191004 | 54 | 57 | 6.0 | 14.0 | 0.00 | 0.02 | 0.00 | 87 | 1016.5 |
| 20260903190504 | 54 | 53 | 6.0 | 14.0 | 0.00 | 0.02 | 0.00 | 87 | 1016.5 |
| 20260903190004 | 54 | 57 | 6.0 | 13.0 | 0.00 | 0.02 | 0.00 | 88 | 1016.4 |
| 20260903185504 | 54 | 67 | 6.0 | 11.0 | 0.00 | 0.02 | 0.00 | 88 | 1016.2 |
| 20260903185004 | 54 | 72 | 6.0 | 13.0 | 0.00 | 0.02 | 0.00 | 88 | 1016.1 |
| 20260903184504 | 54 | 75 | 6.0 | 13.0 | 0.00 | 0.02 | 0.00 | 88 | 1016.2 |
| 20260903184004 | 54 | 78 | 5.0 | 11.0 | 0.00 | 0.02 | 0.00 | 88 | 1016.3 |
| 20260903183504 | 54 | 74 | 7.0 | 11.0 | 0.00 | 0.02 | 0.00 | 88 | 1016.3 |
| 20260903183004 | 54 | 85 | 8.0 | 14.0 | 0.00 | 0.02 | 0.00 | 88 | 1016.4 |
| 20260903182504 | 54 | 93 | 8.0 | 14.0 | 0.00 | 0.02 | 0.00 | 88 | 1016.1 |
| 20260903182025 | 54 | 93 | 7.0 | 14.0 | 0.00 | 0.02 | 0.00 | 88 | 1015.9 |
| 20260903181504 | 54 | 91 | 5.0 | 13.0 | 0.00 | 0.02 | 0.00 | 88 | 1016.4 |
| 20260903181004 | 54 | 85 | 5.0 | 13.0 | 0.00 | 0.02 | 0.00 | 88 | 1016.5 |
| 20260903180503 | 54 | 79 | 4.0 | 13.0 | 0.00 | 0.02 | 0.00 | 88 | 1016.7 |
| 20260903180025 | 54 | 77 | 4.0 | 10.0 | 0.00 | 0.02 | 0.00 | 88 | 1016.8 |
| 20260903175504 | 54 | 74 | 4.0 | 10.0 | 0.00 | 0.02 | 0.00 | 88 | 1017.0 |
| 20260903175025 | 54 | 76 | 6.0 | 9.0 | 0.00 | 0.02 | 0.00 | 88 | 1017.2 |
| 20260903174525 | 54 | 80 | 6.0 | 10.0 | 0.00 | 0.02 | 0.00 | 88 | 1017.1 |
| 20260903174004 | 54 | 86 | 6.0 | 10.0 | 0.00 | 0.02 | 0.00 | 88 | 1017.1 |
| 20260903173504 | 54 | 88 | 4.0 | 10.0 | 0.00 | 0.02 | 0.00 | 88 | 1017.1 |
| 20260903173003 | 54 | 84 | 4.0 | 9.0 | 0.00 | 0.02 | 0.00 | 88 | 1017.3 |
| 20260903172524 | 54 | 86 | 4.0 | 8.0 | 0.00 | 0.02 | 0.00 | 88 | 1017.6 |
| 20260903172004 | 54 | 91 | 4.0 | 8.0 | 0.00 | 0.02 | 0.00 | 87 | 1017.7 |
| 20260903171504 | 54 | 84 | 3.0 | 8.0 | 0.00 | 0.02 | 0.00 | 88 | 1017.8 |
| 20260903171004 | 54 | 73 | 3.0 | 8.0 | 0.00 | 0.02 | 0.00 | 88 | 1018.0 |
| 20260903170503 | 54 | 70 | 3.0 | 8.0 | 0.00 | 0.02 | 0.00 | 88 | 1018.0 |
| 20260903170025 | 54 | 71 | 4.0 | 8.0 | 0.00 | 0.02 | 0.00 | 88 | 1018.0 |
| 20260903165504 | 54 | 81 | 5.0 | 9.0 | 0.00 | 0.02 | 0.00 | 87 | 1018.0 |
| 20260903165004 | 54 | 85 | 5.0 | 9.0 | 0.00 | 0.02 | 0.00 | 87 | 1017.9 |
| 20260903164504 | 54 | 87 | 4.0 | 9.0 | 0.00 | 0.02 | 0.00 | 87 | 1018.0 |
| 20260903164003 | 54 | 91 | 4.0 | 9.0 | 0.00 | 0.02 | 0.00 | 87 | 1018.0 |
| 20260903163504 | 53 | 92 | 4.0 | 9.0 | 0.00 | 0.02 | 0.00 | 87 | 1018.1 |
| 20260903163003 | 53 | 96 | 4.0 | 9.0 | 0.00 | 0.02 | 0.00 | 87 | 1018.1 |
| 20260903162503 | 53 | 97 | 4.0 | 8.0 | 0.00 | 0.02 | 0.00 | 87 | 1018.1 |
| 20260903162025 | 54 | 95 | 4.0 | 8.0 | 0.00 | 0.02 | 0.00 | 87 | 1018.2 |
| 20260903161503 | 54 | 95 | 3.0 | 8.0 | 0.00 | 0.02 | 0.00 | 87 | 1018.2 |
| 20260903161004 | 54 | 99 | 3.0 | 6.0 | 0.00 | 0.02 | 0.00 | 87 | 1018.2 |
| 20260903160525 | 54 | 106 | 3.0 | 6.0 | 0.00 | 0.02 | 0.00 | 87 | 1018.1 |
| 20260903160004 | 54 | 106 | 5.0 | 8.0 | 0.00 | 0.02 | 0.00 | 87 | 1018.1 |
| 20260903155503 | 54 | 108 | 5.0 | 9.0 | 0.00 | 0.02 | 0.00 | 87 | 1018.1 |
| 20260903155003 | 55 | 110 | 5.0 | 9.0 | 0.00 | 0.02 | 0.00 | 87 | 1018.1 |
| 20260903154504 | 55 | 111 | 5.0 | 8.0 | 0.00 | 0.02 | 0.00 | 87 | 1018.1 |
| 20260903154003 | 55 | 117 | 4.0 | 8.0 | 0.00 | 0.02 | 0.00 | 87 | 1018.2 |
| 20260903153504 | 55 | 119 | 4.0 | 6.0 | 0.00 | 0.02 | 0.00 | 86 | 1018.3 |
| 20260903153025 | 55 | 115 | 4.0 | 6.0 | 0.00 | 0.02 | 0.00 | 86 | 1018.3 |
| 20260903152503 | 55 | 112 | 3.0 | 8.0 | 0.00 | 0.02 | 0.00 | 86 | 1018.3 |
| 20260903152025 | 55 | 112 | 2.0 | 8.0 | 0.00 | 0.02 | 0.00 | 86 | 1018.4 |
| 20260903151503 | 56 | 114 | 1.0 | 6.0 | 0.00 | 0.02 | 0.00 | 86 | 1018.5 |
| 20260903151003 | 56 | 99 | 1.0 | 5.0 | 0.00 | 0.02 | 0.00 | 85 | 1018.6 |
| 20260903150504 | 56 | 89 | 2.0 | 5.0 | 0.00 | 0.02 | 0.00 | 85 | 1018.6 |
| 20260903150025 | 56 | 109 | 2.0 | 3.0 | 0.00 | 0.02 | 0.00 | 85 | 1018.7 |
| 20260903145503 | 56 | 120 | 2.0 | 6.0 | 0.00 | 0.02 | 0.00 | 85 | 1018.7 |
| 20260903145004 | 56 | 114 | 2.0 | 6.0 | 0.00 | 0.02 | 0.00 | 84 | 1018.7 |
| 20260903144503 | 56 | 96 | 1.0 | 6.0 | 0.00 | 0.02 | 0.00 | 84 | 1018.9 |
| 20260903144003 | 55 | 78 | 2.0 | 5.0 | 0.00 | 0.02 | 0.00 | 84 | 1019.0 |
| 20260903143503 | 55 | 76 | 3.0 | 8.0 | 0.00 | 0.02 | 0.00 | 84 | 1019.0 |
| 20260903143005 | 55 | 79 | 2.0 | 8.0 | 0.00 | 0.02 | 0.00 | 84 | 1019.1 |
| 20260903142503 | 55 | 86 | 2.0 | 8.0 | 0.00 | 0.02 | 0.02 | 83 | 1019.0 |
| 20260903142024 | 55 | 93 | 1.0 | 8.0 | 0.00 | 0.02 | 0.02 | 83 | 1019.1 |
| 20260903141504 | 55 | 85 | 0.0 | 5.0 | 0.00 | 0.02 | 0.02 | 82 | 1019.1 |
| 20260903141003 | 55 | 62 | 0.0 | 3.0 | 0.00 | 0.02 | 0.02 | 82 | 1019.2 |
| 20260903140525 | 55 | 62 | 0.0 | 1.0 | 0.00 | 0.02 | 0.02 | 82 | 1019.2 |
| 20260903140004 | 55 | 62 | 1.0 | 1.0 | 0.00 | 0.02 | 0.02 | 81 | 1019.4 |
| 20260903135504 | 55 | 89 | 1.0 | 5.0 | 0.00 | 0.02 | 0.02 | 81 | 1019.5 |
| 20260903135004 | 55 | 85 | 0.0 | 5.0 | 0.00 | 0.02 | 0.02 | 80 | 1019.6 |
| 20260903134503 | 55 | 78 | 0.0 | 3.0 | 0.00 | 0.02 | 0.02 | 80 | 1019.6 |
| 20260903134003 | 55 | 86 | 0.0 | 3.0 | 0.00 | 0.02 | 0.02 | 80 | 1019.6 |
| 20260903133504 | 55 | 88 | 0.0 | 3.0 | 0.00 | 0.02 | 0.02 | 79 | 1019.7 |
| 20260903133024 | 55 | 0 | 0.0 | 0.0 | 0.00 | 0.02 | 0.02 | 79 | 1019.8 |
| 20260903132503 | 55 | 44 | 0.0 | 1.0 | 0.00 | 0.02 | 0.02 | 79 | 1019.8 |
| 20260903132004 | 56 | 51 | 0.0 | 3.0 | 0.00 | 0.02 | 0.02 | 79 | 1019.9 |
| 20260903131503 | 56 | 51 | 1.0 | 3.0 | 0.00 | 0.02 | 0.02 | 79 | 1019.9 |
| 20260903131003 | 56 | 64 | 2.0 | 3.0 | 0.00 | 0.02 | 0.02 | 79 | 1020.0 |
| 20260903130504 | 56 | 79 | 3.0 | 6.0 | 0.00 | 0.02 | 0.02 | 79 | 1020.0 |
| 20260903130024 | 56 | 92 | 4.0 | 6.0 | 0.00 | 0.02 | 0.02 | 79 | 1020.0 |
| 20260903125503 | 56 | 99 | 4.0 | 6.0 | 0.00 | 0.02 | 0.02 | 80 | 1020.0 |
| 20260903125003 | 56 | 98 | 4.0 | 8.0 | 0.00 | 0.02 | 0.02 | 80 | 1020.0 |
| 20260903124524 | 56 | 100 | 4.0 | 8.0 | 0.00 | 0.02 | 0.02 | 79 | 1020.1 |
| 20260903124004 | 56 | 100 | 4.0 | 6.0 | 0.00 | 0.02 | 0.02 | 79 | 1020.1 |
| 20260903123504 | 56 | 93 | 3.0 | 6.0 | 0.00 | 0.02 | 0.02 | 79 | 1020.1 |
| 20260903123003 | 56 | 91 | 3.0 | 6.0 | 0.00 | 0.02 | 0.02 | 80 | 1020.2 |
| 20260903122504 | 56 | 99 | 3.0 | 5.0 | 0.00 | 0.02 | 0.02 | 80 | 1020.2 |
| 20260903122003 | 56 | 102 | 3.0 | 6.0 | 0.00 | 0.02 | 0.02 | 80 | 1020.2 |
| 20260903121504 | 56 | 96 | 3.0 | 6.0 | 0.00 | 0.02 | 0.02 | 80 | 1020.3 |
| 20260903121004 | 56 | 83 | 2.0 | 6.0 | 0.00 | 0.02 | 0.02 | 81 | 1020.2 |